Geely Xingzuo 05 zu 11 xing

operational
NORAD ID: 65560 Int'l Des: 2025-201 Owner: GEESP Country: CN Constellation: geesatcom
LEOCIRCULAR

About Geely Xingzuo 05 zu 11 xing

Description loading...

Live Position

Loading 3D Globe...

Upcoming Passes

Altitude History

Altitude vs Time

uPlot chart will show altitude changes over time

Two-Line Element Set

1 65560U 25201L 26063.09061355 .00003593 00000-0 45663-3 0 9995
2 65560 49.9862 166.2703 0008881 295.6420 64.3600 14.83722902 26218
Epoch: Mar 4, 2026 • Age: 21 hours

Current Status

Altitude 621.1 km
Velocity 7.55 km/s
Sub-Earth Point -2.57°S, 129.47°W
Launch Date Sep 8, 2025
Age 0.4 years
Type other

Technical Details

Classification Payload
Mass 130.00 kg
Dry Mass 130.00 kg
Total Mass 130.00 kg
Length 1.00 m
Diameter 0.50 m
Span 2.00 m
Shape Box + 2 pan
Manufacturer GWCG
Bus Type GPS100
Phase Status In Orbit
Owner/State GEESP/CN

Large Constellations

Loading constellations...